DELTA 1 DEB, 47114

Orbit data source: Space-Track

DELTA 1 DEB, 47114 is space debris in SSO originally from a launch on Tue, 06 Nov 1973 UTC launched from the Air Force Western Test Range (AFWTR). Debris objects in space refer to the collection of defunct objects orbiting the Earth. Examples of debris include non-operational satellites, rocket bodies, and fragments generated from explosions, collisions, or faulty payload assembly.

Loading next visibility...
Identifier
47114, 1973-086JF
Orbit
SSO
Country
Flag of USUS
Related business
Manufacturer
Unknown
Mission
Spacecraft
Bus & Motor
Unknown
Mass
Unknown
Launch date (UTC)
1973-11-06 (52 years ago)
Launch vehicle
Unknown
Launch site
Air Force Western Test Range (AFWTR)
Object type
Payload
Rocket body
Debris
Shape & HBR
Unknown shape, 0.1 m
Radar Cross Section
Small (<0.1 m²)

Expand to show TLE details & history
Last TLE update: 3 days ago

TLE from 3 days ago
0 DELTA 1 DEB
1 47114U 73086JF  25290.44985419 -.00000022  00000-0  14692-3 0  9993
2 47114 101.5456 175.8438 0095889 269.6888  89.3193 12.46351010536171
Epoch: 2025-10-17T10:47Z
TLE epoch observation values (Epoch: 2025-10-17T10:47:47.402Z)
Latitude
0.00002°
Longitude
-12.29877°
Altitude
1,482.198 km
Speed
7.123 km/s
True Right ascension
11h 43m 22s
True Declination
0° 00' 00"
Sunlit
Object was in daylight at epoch
Visualization orbit readout
Latitude
Unknown
Longitude
Unknown
Altitude
Unknown
Speed
Unknown
Apparent Right ascension
Unknown
Apparent Declination
Unknown
Sunlit
N/A
Visualization observer readout
Local Sidereal Time
20:11:54
Azimuth
Unknown
Elevation
Unknown
Doppler factor
Unknown
Orbital elements
Apogee altitude
1,552.66 km
Perigee altitude
1,402.009 km
Semi-major axis
7,855.471 km
Eccentricity
0.00959
Inclination
101.5456°
RAAN
175.8438°
Arg. of periapsis
269.6888°
True anomaly
90.41812°
Mean anomaly
89.3193°
Eccentric anomaly
89.8687°
Mean motion
3.11734 °/min
Orbital period
115.48 mins
BSTAR
0.00014692
Loading maneuver chart data...
Computing Atmospheric mass density...
Loading historical data...
Loading historical data...
Loading historical data...
Loading historical data...
Loading historical data...
Loading historical data...
Loading historical data...

Documentation

Showing up to 5 results
|